Total_Precipitation_Accumulation
0.01 0.02 0.02 0.02 0.02 0.03 0.05 0.12 0.15 0.18 0.23 0.25 0.35 0.42 0.68 0.89 1.01 1.14 1.28 1.48 1.61 1.80 1.91 2.04 2.26 2.40 2.44 2.49 2.71 2.96 3.30 3.67 3.77 3.68 3.64 3.55 3.23 2.95 2.62 2.33 2.29 2.37 2.32 2.42
0.02 0.03 0.02 0.02 0.02 0.03 0.06 0.12 0.17 0.20 0.26 0.25 0.41 0.51 0.73 1.10 1.23 1.19 1.23 1.27 1.31 1.66 1.90 2.12 2.31 2.38 2.30 2.41 2.68 3.04 3.32 3.65 3.61 3.74 3.90 3.78 3.50 2.94 2.58 2.35 2.26 2.28 2.28 2.30
0.03 0.03 0.02 0.02 0.03 0.06 0.08 0.11 0.16 0.21 0.32 0.29 0.40 0.73 0.93 1.20 1.32 1.22 1.19 1.20 1.12 1.29 1.56 1.72 1.84 1.97 2.19 2.53 2.92 3.16 3.37 3.47 3.50 3.64 3.71 3.38 3.14 2.72 2.57 2.52 2.37 2.28 2.36 2.40
0.02 0.02 0.02 0.04 0.05 0.07 0.10 0.09 0.09 0.15 0.26 0.40 0.49 1.03 1.32 1.50 1.37 1.12 1.17 1.22 1.29 1.37 1.42 1.51 1.62 1.90 2.23 2.55 2.96 3.34 3.32 3.29 3.24 3.36 3.43 3.21 2.89 2.63 2.52 2.49 2.26 2.11 2.08 2.12
0.05 0.03 0.03 0.04 0.05 0.06 0.07 0.07 0.07 0.13 0.21 0.38 0.55 0.95 1.37 1.44 1.32 1.07 1.01 1.19 1.39 1.33 1.30 1.40 1.51 1.74 1.93 2.23 2.54 2.89 3.13 3.15 3.03 3.02 3.03 2.97 2.74 2.47 2.31 2.24 2.11 2.04 2.04 1.93
0.08 0.07 0.06 0.05 0.06 0.05 0.05 0.07 0.11 0.21 0.38 0.68 0.55 0.69 1.11 1.32 1.19 0.96 0.95 1.10 1.25 1.39 1.39 1.44 1.64 1.77 1.83 2.01 2.28 2.48 2.66 2.73 2.67 2.60 2.60 2.61 2.50 2.41 2.22 2.07 2.08 2.09 2.00 1.85
0.17 0.17 0.12 0.09 0.07 0.06 0.07 0.15 0.44 0.77 1.06 0.95 0.61 0.72 1.07 1.00 0.84 0.75 0.82 1.05 1.28 1.50 1.47 1.52 1.68 1.76 1.82 1.86 1.94 2.01 2.07 2.16 2.10 2.04 2.03 2.06 2.05 2.04 1.93 1.88 1.93 1.97 1.89 1.78
0.25 0.24 0.17 0.15 0.12 0.10 0.10 0.19 0.53 0.70 0.83 0.82 0.77 1.00 1.07 0.83 0.71 0.70 0.76 0.92 1.17 1.31 1.33 1.40 1.46 1.38 1.32 1.34 1.41 1.48 1.50 1.53 1.51 1.55 1.63 1.66 1.76 1.76 1.71 1.78 1.78 1.81 1.78 1.72
0.14 0.15 0.15 0.15 0.16 0.15 0.19 0.24 0.25 0.42 0.50 0.80 0.98 1.12 1.04 0.76 0.86 0.85 0.91 0.95 1.00 1.02 1.01 0.99 0.98 1.01 1.06 1.08 1.10 1.11 1.15 1.17 1.12 1.14 1.26 1.34 1.41 1.45 1.47 1.55 1.56 1.51 1.49 1.41
0.07 0.11 0.13 0.11 0.11 0.14 0.20 0.32 0.44 0.64 0.82 0.94 0.98 1.25 1.40 1.25 1.17 1.06 1.16 1.37 1.18 0.91 0.86 0.83 0.77 0.77 0.79 0.80 0.89 0.96 1.03 1.12 1.09 1.02 1.02 1.02 1.10 1.13 1.25 1.30 1.29 1.32 1.35 1.31
0.08 0.10 0.13 0.15 0.15 0.20 0.32 0.40 0.49 0.62 0.71 0.90 1.05 1.18 1.06 1.18 1.14 1.11 1.16 1.21 1.03 0.73 0.61 0.62 0.54 0.53 0.58 0.67 0.76 0.81 0.93 1.02 0.98 0.87 0.86 0.89 0.90 0.94 1.01 1.08 1.07 1.12 1.18 1.25
0.10 0.11 0.15 0.18 0.18 0.18 0.27 0.40 0.51 0.67 0.74 0.79 0.93 1.03 0.67 0.80 0.82 0.83 0.90 0.79 0.67 0.54 0.44 0.53 0.50 0.42 0.45 0.50 0.54 0.61 0.71 0.82 0.85 0.82 0.83 0.88 0.90 0.89 0.89 0.92 0.90 0.92 0.98 0.99
0.12 0.16 0.26 0.43 0.42 0.27 0.25 0.27 0.34 0.44 0.56 0.62 0.85 1.00 0.66 0.59 0.65 0.67 0.67 0.63 0.50 0.53 0.47 0.46 0.48 0.38 0.35 0.38 0.43 0.49 0.54 0.62 0.72 0.75 0.81 0.88 0.87 0.85 0.87 0.92 0.91 0.88 0.88 0.90
0.13 0.14 0.22 0.45 0.52 0.40 0.32 0.31 0.33 0.37 0.49 0.52 0.57 0.77 0.74 0.66 0.61 0.65 0.61 0.51 0.43 0.42 0.45 0.40 0.38 0.33 0.27 0.29 0.33 0.37 0.39 0.45 0.53 0.63 0.79 0.95 1.01 1.00 1.01 0.98 0.98 0.95 0.90 0.91
0.12 0.13 0.14 0.19 0.26 0.28 0.26 0.27 0.30 0.33 0.38 0.48 0.49 0.59 0.68 0.59 0.56 0.61 0.55 0.45 0.46 0.38 0.35 0.32 0.29 0.23 0.22 0.22 0.25 0.31 0.38 0.42 0.48 0.63 0.86 1.00 1.00 0.95 0.94 0.91 0.97 0.96 0.88 0.83
0.14 0.15 0.17 0.23 0.27 0.30 0.31 0.31 0.27 0.25 0.24 0.27 0.36 0.51 0.50 0.48 0.48 0.53 0.54 0.45 0.42 0.38 0.32 0.27 0.24 0.20 0.17 0.16 0.18 0.23 0.33 0.39 0.50 0.64 0.73 0.77 0.84 0.88 0.84 0.78 0.75 0.78 0.81 0.80
0.19 0.19 0.23 0.29 0.34 0.40 0.47 0.39 0.37 0.36 0.32 0.33 0.51 0.58 0.45 0.44 0.43 0.43 0.40 0.33 0.32 0.31 0.31 0.28 0.22 0.20 0.16 0.14 0.18 0.22 0.29 0.35 0.47 0.59 0.61 0.68 0.82 0.85 0.78 0.66 0.69 0.76 0.79 0.79
0.21 0.26 0.26 0.29 0.45 0.65 0.50 0.28 0.25 0.27 0.31 0.29 0.35 0.38 0.35 0.34 0.32 0.28 0.28 0.23 0.21 0.18 0.18 0.17 0.16 0.19 0.17 0.17 0.21 0.24 0.28 0.34 0.47 0.60 0.65 0.69 0.83 0.84 0.79 0.75 0.74 0.75 0.76 0.77
0.18 0.28 0.33 0.36 0.47 0.52 0.42 0.28 0.27 0.32 0.33 0.23 0.26 0.29 0.30 0.31 0.31 0.39 0.27 0.16 0.15 0.12 0.14 0.14 0.13 0.17 0.25 0.28 0.29 0.33 0.38 0.39 0.47 0.59 0.69 0.78 0.89 0.90 0.86 0.82 0.79 0.79 0.77 0.72
0.20 0.27 0.37 0.39 0.54 0.61 0.48 0.32 0.33 0.40 0.60 0.41 0.33 0.37 0.36 0.31 0.46 0.49 0.29 0.15 0.16 0.14 0.18 0.18 0.18 0.22 0.28 0.33 0.32 0.36 0.41 0.48 0.58 0.69 0.77 0.84 0.91 0.98 0.96 0.93 0.91 0.86 0.84 0.77
0.39 0.42 0.42 0.41 0.53 0.60 0.43 0.32 0.37 0.68 0.82 0.46 0.38 0.38 0.39 0.38 0.40 0.35 0.23 0.19 0.21 0.18 0.21 0.24 0.28 0.37 0.39 0.38 0.42 0.48 0.50 0.55 0.61 0.71 0.82 0.95 1.04 1.02 1.01 1.03 1.02 0.98 0.93 0.92
0.57 0.55 0.52 0.55 0.69 0.73 0.44 0.40 0.53 0.62 0.47 0.38 0.37 0.34 0.33 0.30 0.26 0.25 0.24 0.21 0.18 0.18 0.23 0.35 0.45 0.50 0.49 0.54 0.64 0.70 0.71 0.68 0.69 0.79 0.88 1.03 1.15 1.00 0.94 1.10 1.13 1.10 1.10 1.09
0.60 0.62 0.66 0.71 0.74 0.61 0.50 0.51 0.59 0.48 0.42 0.35 0.30 0.30 0.28 0.25 0.23 0.23 0.25 0.22 0.21 0.21 0.25 0.38 0.49 0.53 0.53 0.61 0.75 0.89 0.89 0.84 0.82 0.90 1.00 1.03 1.06 1.12 1.15 1.17 1.18 1.18 1.16 1.17
0.59 0.55 0.68 0.77 0.75 0.65 0.56 0.51 0.48 0.46 0.40 0.30 0.24 0.24 0.25 0.25 0.25 0.24 0.27 0.30 0.28 0.27 0.28 0.34 0.46 0.51 0.60 0.68 0.80 0.94 0.98 0.98 0.99 1.03 1.08 1.12 1.14 1.16 1.23 1.33 1.30 1.26 1.20 1.22
0.63 0.64 0.73 0.83 0.81 0.69 0.54 0.44 0.37 0.31 0.31 0.28 0.24 0.22 0.22 0.24 0.29 0.28 0.34 0.36 0.33 0.36 0.34 0.38 0.51 0.60 0.66 0.72 0.81 0.90 0.97 1.06 1.15 1.18 1.20 1.22 1.23 1.27 1.32 1.34 1.31 1.24 1.20 1.12
0.52 0.64 0.82 0.91 0.75 0.64 0.50 0.41 0.39 0.31 0.26 0.25 0.24 0.22 0.23 0.22 0.24 0.26 0.31 0.38 0.37 0.43 0.51 0.48 0.52 0.63 0.69 0.77 0.86 0.96 1.10 1.22 1.36 1.37 1.29 1.28 1.26 1.32 1.36 1.35 1.19 0.98 0.91 0.85